Price, UT

5:27 PM MDT on July 23, 2017 (GMT -0600)
Carbon County

Weather History for KPUC - January, 2014

Change the Weather History Date:

Tuesday, January 21, 2014

  Actual Average Record
Temperature  
Mean Temperature 32 °F -  
Max Temperature 45 °F 34 °F 51 °F (1981)
Min Temperature 19 °F 17 °F -3 °F (1984)
Degree Days  
Heating Degree Days 33    
Moisture  
Dew Point 13 °F    
Average Humidity 51    
Maximum Humidity 68    
Minimum Humidity 27    
Precipitation  
Precipitation 0.00 in - - ()
Sea Level Pressure  
Sea Level Pressure 30.52 in    
Wind  
Wind Speed 5 mph (NE)    
Max Wind Speed 9 mph    
Max Gust Speed -    
Visibility 10 miles    
Events      
Averages and records for this station are not official NWS values.
T = Trace of Precipitation, MM = Missing Value Source: NWS Daily Summary

Daily Weather History Graph

Daily Weather History Graph

Search for Another Location

Airport or City:

Trip Planner

Search our weather history database for the weather conditions in past years. The results will help you decide how hot, cold, wet, or windy it might be!

Date:

Astronomy

Jan. 21, 2014 Rise Set
Actual Time 7:38 AM MST 5:30 PM MST
Civil Twilight 7:09 AM MST 5:59 PM MST
Nautical Twilight 6:36 AM MST 6:32 PM MST
Astronomical Twilight 6:04 AM MST 7:04 PM MST
Moon 11:05 PM MST (1/21) 10:11 AM MST (1/21)
Length of Visible Light 10h 49m
Length of Day
9h 51m
Waning Gibbous, 74% of the Moon is Illuminated
Jan 21
Waning Gibbous
Jan 23
Last Quarter
Jan 30
New
Feb 6
First Quarter
Feb 14
Full

Hourly Weather History & Observations

Time (MST) Temp. Windchill Dew Point Humidity Pressure Visibility Wind Dir Wind Speed Gust Speed Precip Events Conditions
12:53 AM 25.0 °F 19.3 °F 12.9 °F 60% 30.56 in 10.0 mi North 4.6 mph - N/A   Clear
1:53 AM 26.1 °F 17.6 °F 12.9 °F 58% 30.54 in 10.0 mi NNE 8.1 mph - N/A   Clear
2:53 AM 23.0 °F 18.4 °F 12.0 °F 63% 30.56 in 10.0 mi North 3.5 mph - N/A   Clear
3:53 AM 21.9 °F 15.7 °F 12.0 °F 66% 30.57 in 10.0 mi NE 4.6 mph - N/A   Clear
4:53 AM 21.9 °F 15.7 °F 12.0 °F 66% 30.58 in 10.0 mi ENE 4.6 mph - N/A   Clear
5:53 AM 19.0 °F 13.9 °F 10.0 °F 68% 30.61 in 10.0 mi NNE 3.5 mph - N/A   Clear
6:53 AM 19.9 °F 11.1 °F 10.9 °F 68% 30.64 in 10.0 mi North 6.9 mph - N/A   Clear
7:53 AM 23.0 °F 18.4 °F 10.9 °F 60% 30.63 in 10.0 mi ENE 3.5 mph - N/A   Clear
8:53 AM 28.0 °F - 12.0 °F 51% 30.63 in 10.0 mi Calm Calm - N/A   Clear
9:53 AM 34.0 °F - 12.9 °F 42% 30.61 in 10.0 mi Calm Calm - N/A   Clear
10:53 AM 37.9 °F 33.5 °F 15.1 °F 39% 30.58 in 10.0 mi SSE 5.8 mph - N/A   Clear
11:53 AM 39.9 °F 36.7 °F 15.1 °F 36% 30.55 in 10.0 mi Variable 4.6 mph - N/A   Clear
12:53 PM 42.1 °F 38.4 °F 12.9 °F 31% 30.50 in 10.0 mi ESE 5.8 mph - N/A   Clear
1:53 PM 43.0 °F 41.3 °F 14.0 °F 31% 30.46 in 10.0 mi Variable 3.5 mph - N/A   Clear
2:53 PM 45.0 °F 43.5 °F 12.9 °F 27% 30.44 in 10.0 mi Variable 3.5 mph - N/A   Clear
3:53 PM 45.0 °F 43.5 °F 14.0 °F 29% 30.43 in 10.0 mi Variable 3.5 mph - N/A   Clear
4:53 PM 42.1 °F 38.4 °F 14.0 °F 32% 30.43 in 10.0 mi SE 5.8 mph - N/A   Clear
5:53 PM 34.0 °F 28.0 °F 15.1 °F 46% 30.47 in 10.0 mi East 6.9 mph - N/A   Clear
6:53 PM 27.0 °F 18.0 °F 14.0 °F 58% 30.49 in 10.0 mi NE 9.2 mph - N/A   Clear
7:53 PM 25.0 °F 17.1 °F 12.0 °F 58% 30.48 in 10.0 mi North 6.9 mph - N/A   Clear
8:53 PM 24.1 °F 18.2 °F 10.9 °F 57% 30.46 in 10.0 mi North 4.6 mph - N/A   Clear
9:53 PM 24.1 °F 15.2 °F 12.0 °F 60% 30.43 in 10.0 mi NE 8.1 mph - N/A   Clear
10:53 PM 23.0 °F 17.0 °F 10.9 °F 60% 30.40 in 10.0 mi East 4.6 mph - N/A   Clear
11:53 PM 21.9 °F 17.2 °F 10.9 °F 63% 30.39 in 10.0 mi East 3.5 mph - N/A   Clear